Regional Weather Roundup
Issued by NWS Glasgow, MT

Home | Current Version | Previous Version | Text Only | Print | Product List | Glossary On
Versions: 1 2 3 4 5 6 7 8 9 10 11 12 13 14 15 16 17 18 19 20 21 22 23 24 25 26 27 28 29 30 31 32 33 34 35 36 37 38 39 40 41 42 43 44 45 46 47 48 49 50
000
ASUS45 KGGW 241115
RWRGGW
HOURLY WEATHER ROUNDUP FOR NORTHEAST MONTANA
NATIONAL WEATHER SERVICE GLASGOW MONTANA
500 AM MDT THU JUL 24 2014

NOTE: "FAIR" INDICATES FEW OR NO CLOUDS BELOW 12,000 FEET WITH NO
SIGNIFICANT WEATHER AND/OR OBSTRUCTIONS TO VISISBILITY.

NORTHEAST MONTANA


CITY           SKY/WX    TMP DP  RH WIND       PRES   REMARKS
GLASGOW        PTCLDY    67  63  87 E18       29.80F
PLENTYWOOD       N/A     64  60  87 N23G38      N/A
WOLF POINT     CLOUDY    65  60  84 E18G28    29.85S
JORDAN           N/A     69  64  84 NE8       29.82R
WINNETT          N/A     69  52  54 NW10        N/A
SIDNEY         CLOUDY    64  61  88 NE20G28   29.91R
GLENDIVE       CLOUDY    68  55  64 NE9       29.85F
MALTA            N/A    N/A N/A N/A N7          N/A

FORT PECK REPORTS


CITY           SKY/WX    TMP DP  RH WIND       PRES   REMARKS
FORT PECK        N/A     67  58  72 NE16        N/A
THE PINES        N/A     69  60  73 NE20G31     N/A

SOUTHEAST MONTANA


CITY           SKY/WX    TMP DP  RH WIND       PRES   REMARKS
BILLINGS       PTCLDY    69  60  73 SW12      29.82S
MILES CITY     PTCLDY    66  60  81 N12       29.76S
BAKER          PTCLDY    62  56  80 E14       29.81F
LIVINGSTON     PTCLDY    60  43  53 NW14      29.94R

CENTRAL MONTANA


CITY           SKY/WX    TMP DP  RH WIND       PRES   REMARKS
HAVRE          PTCLDY    65  60  84 E12       29.81R
LEWISTOWN      CLEAR     57  50  77 SE6       29.91R
GREAT FALLS    CLEAR     59  53  80 N8        29.89R
CUT BANK       CLEAR     57  51  80 W6        29.93S
HELENA         CLEAR     65  49  56 W9        29.93R
BUTTE          CLEAR     48  43  82 SE8       30.05R
BOZEMAN        PTCLDY    58  45  62 SE6       29.93S

WESTERN MONTANA


CITY           SKY/WX    TMP DP  RH WIND       PRES   REMARKS
MISSOULA       PTCLDY    61  43  51 NW10      30.04S
KALISPELL      NOT AVBL

NORTH DAKOTA


CITY           SKY/WX    TMP DP  RH WIND       PRES   REMARKS
WILLISTON      HVY RAIN  66  60  81 SW12G26   30.00R
DICKINSON      LGT RAIN  63  56  78 SE21G28   29.84F
MINOT          MOCLDY    63  59  87 E14       29.95F
BISMARCK       PTCLDY    65  56  72 SE9       29.96F

SOUTHERN SASKATCHEWAN


CITY           SKY/WX    TMP DP  RH WIND       PRES   REMARKS
REGINA         MOCLDY    63  61  94 SE7       29.93R
MOOSE JAW      TSTM      66  64  94 SE12      29.88F
ESTEVAN        CLOUDY    63  61  94 E9        29.92F THUNDER
SWIFT CURRENT  CLOUDY    66  57  72 N20G25    29.80R



USA.gov is the U.S. government's official web portal to all federal, state and local government web resources and services.